Regional Weather Roundup
Issued by NWS Cleveland, OH

Home | Current Version | Previous Version | Text Only | Print | Product List | Glossary Off
Versions: 1 2 3 4 5 6 7 8 9 10 11 12 13 14 15 16 17 18 19 20 21 22 23 24 25 26 27 28 29 30 31 32 33 34 35 36 37 38 39 40 41 42 43 44 45 46 47 48 49 50

000
ASUS41 KCLE 220602
RWRCLE
OHIO REGIONAL WEATHER ROUNDUP
NATIONAL WEATHER SERVICE CLEVELAND, OH
200 AM EDT FRI AUG 22 2014

NOTE: "FAIR" INDICATES FEW OR NO CLOUDS BELOW 12,000 FEET WITH NO
SIGNIFICANT WEATHER AND/OR OBSTRUCTIONS TO VISIBILITY.

OHZ001>008-015>018-024>027-034-035-043-044-220700-
   NORTHWEST OHIO

CITY           SKY/WX    TMP DP  RH WIND       PRES   REMARKS
DEFIANCE       FAIR      72  69  90 CALM      29.97F FOG
FINDLAY        CLOUDY    73  69  87 CALM      29.99R
TOLEDO EXPRESS FAIR      68  68 100 CALM      29.97F FOG
TOLEDO EXEC    CLOUDY    72  68  87 CALM      29.99S
LIMA           CLOUDY    71  68  90 SW9       29.99F
$$

OHZ009>014-019>023-028>033-038-089-220700-
   NORTHEAST OHIO

CITY           SKY/WX    TMP DP  RH WIND       PRES   REMARKS
CLE-HOPKINS    LGT RAIN  71  68  90 SW3       30.02S
CLE-LAKEFRONT  CLOUDY    74  67  78 S6        29.98S
CUY CO. ARPT   NOT AVBL
LORAIN-ELYRIA  CLOUDY    74  68  81 SW6       30.01S
ASHTABULA      LGT RAIN  70  68  93 SW3       30.02R FOG
AKRON-CANTON   LGT RAIN  71  67  87 CALM      30.02F
WOOSTER        MOCLDY    70  67  90 S3        30.03F
MANSFIELD      CLOUDY    70  69  97 CALM      30.02F
YOUNGSTOWN     CLOUDY    69  67  93 S3        30.03R
$$

OHZ042-051>053-060>062-070>072-077>081-220700-
  SOUTHWEST OHIO

CITY           SKY/WX    TMP DP  RH WIND       PRES   REMARKS
CINC-COVINGTON TSTM      72  69  90 E5        30.05F FOG
CINC-LUNKEN    LGT RAIN  70  69  97 S5        30.04F
HAMILTON       LGT RAIN  70  70 100 E5        30.02F
DAYTON         LGT RAIN  72  68  87 W15       30.02F
WRIGHT-PAT AFB DRIZZLE   71  69  95 SW10      30.01F
DAYTON GENERAL LGT RAIN  69  68  96 NW8       30.04F
WILMINGTON     LGT RAIN  70  66  87 W10       30.03F
$$

OHZ036-037-039>041-045>050-054>059-063>069-073>076-082>088-220700-
  CENTRAL AND SOUTHEAST OHIO

CITY           SKY/WX    TMP DP  RH WIND       PRES   REMARKS
COLUMBUS       TSTM      73  70  88 CALM      30.00S FOG
OSU AIRPORT    LGT RAIN  73  70  90 SW6       30.00F
BOLTON FIELD   LGT RAIN  72  71  99 W13       30.01F
RICKENBACK AFB RAIN      72  67  86 W5        29.99F
NEWARK         HVY RAIN  69  67  93 SE5       29.99F FOG
MARION         CLOUDY    70  68  93 E5        30.00S
LANCASTER      HVY RAIN  72  70  93 SW8       30.00F FOG
ZANESVILLE     MOCLDY    69  67  93 SE3       30.01F
NEW PHILLY     FAIR      69  68  96 CALM      30.03S
$$



USA.gov is the U.S. government's official web portal to all federal, state and local government web resources and services.